Regional Weather Roundup
Issued by NWS

Home | Current Version | Previous Version | Graphics & Text | Print | Product List | Glossary On
Versions: 1 2 3 4 5 6 7 8 9 10 11 12 13 14 15 16 17 18 19 20 21 22 23 24 25 26 27 28 29 30 31 32 33 34 35 36 37 38 39 40 41 42 43 44 45 46 47 48 49 50
000
ASUS44 KMEG 290510
RWRTN
TENNESSEE HOURLY STATE WEATHER ROUNDUP
NATIONAL WEATHER SERVICE MEMPHIS TN
1100 PM CST FRI NOV 28 2014

TNZ002-004-019-021-049-052-054-088>092-290600-
WEST TENNESSEE

CITY           SKY/WX    TMP DP  RH WIND       PRES   REMARKS
MEMPHIS INTL   CLEAR     50  26  39 S16G26    30.09F
NWS MEMPHIS      N/A     45 N/A N/A MISG        N/A
JACKSON        CLEAR     44  27  51 S10       30.10S
DYERSBURG      CLEAR     45  21  39 S8        30.08F
UNION CITY     CLEAR     41  28  60 S8        30.05R
PARIS          CLEAR     41  27  56 S10       30.07S
HUNTINGDON     CLEAR     42  23  47 S12       30.08F
LEXINGTON      CLEAR     43  25  49 S12       30.11S
SAVANNAH       CLEAR     43  25  49 S12       30.13F
$$

TNZ008-025-027-028-033-062-065-066-290600-
NORTH MIDDLE TENNESSEE

CITY           SKY/WX    TMP DP  RH WIND       PRES   REMARKS
NASHVILLE      CLEAR     40  21  46 SE5       30.14F
CLARKSVILLE    CLEAR     43  25  49 S15       30.07F
COOKEVILLE     CLEAR     37  21  52 S7        30.14F WCI  32
CROSSVILLE     CLEAR     37  17  44 S7        30.16F WCI  32
$$

TNZ061-075-076-078-094-096-097-290600-
SOUTH MIDDLE TENNESSEE

CITY           SKY/WX    TMP DP  RH WIND       PRES   REMARKS
FAYETTEVILLE   CLEAR     37  19  48 MISG      30.18F
TULLAHOMA      CLEAR     36  19  51 SE3       30.18F
WINCHESTER     CLEAR     39  21  48 SE5       30.20S
MCMINNVILLE    CLEAR     30  23  74 CALM      30.16F
COLUMBIA       CLEAR     43  25  49 S6        30.13S
SHELBYVILLE    CLEAR     39  21  48 S10       30.18F WCI  32
$$

TNZ017-018-042-046-047-290600-
NORTHEAST TENNESSEE

CITY           SKY/WX    TMP DP  RH WIND       PRES   REMARKS
TRI CITIES     PTCLDY    25  22  88 CALM      30.21F
ELIZABETHTON   CLEAR     27  19  74 NE5       30.21S WCI  21
$$

TNZ012-013-036-069-073-074-290600-
CENTRAL EAST TENNESSEE

CITY           SKY/WX    TMP DP  RH WIND       PRES   REMARKS
KNOXVILLE      PTCLDY    30  24  78 CALM      30.23R
OAK RIDGE      CLEAR     31  22  69 SW3       30.23F
GATLINBURG     CLEAR     25  21  86 CALM      30.24R
MORRISTOWN     CLEAR     28  21  74 CALM      30.22S
$$

TNZ083-085-099-290600-
SOUTHEAST TENNESSEE

CITY           SKY/WX    TMP DP  RH WIND       PRES   REMARKS
CHATTANOOGA    CLEAR     33  23  66 CALM      30.25F
$$

SKY/WX REPORTED AS FAIR MEANS FEW OR NO CLOUDS BELOW
12 THOUSAND FEET.




USA.gov is the U.S. government's official web portal to all federal, state and local government web resources and services.